Weather History for Tehachapi, CA

Change the Weather History Date:

Sunday, May 19, 2013

  Actual Average Record
Temperature  
Mean Temperature 58 °F -  
Max Temperature 68 °F 72 °F 75 °F (2012)
Min Temperature 48 °F 45 °F 44 °F (2014)
Degree Days  
Heating Degree Days 7    
Growing Degree Days 8 (Base 50)    
Moisture  
Dew Point 34 °F    
Average Humidity 40    
Maximum Humidity 62    
Minimum Humidity 30    
Precipitation  
Precipitation 0.00 in - - ()
Sea Level Pressure  
Sea Level Pressure 30.10 in    
Wind  
Wind Speed 15 mph (WNW)    
Max Wind Speed 21 mph    
Max Gust Speed 26 mph    
Visibility 10 miles    
Events      
Averages and records for this station are not official NWS values.
T = Trace of Precipitation, MM = Missing Value Source: NWS Daily Summary

Daily Weather History Graph

Daily Weather History Graph

Search for Another Location

Airport:

Trip Planner

Search our weather history database for the weather conditions in past years. The results will help you decide how hot, cold, wet, or windy it might be!

Date:

Astronomy

May. 19, 2013 Rise Set
Actual Time 5:46 AM PDT 7:54 PM PDT
Civil Twilight 5:18 AM PDT 8:22 PM PDT
Nautical Twilight 4:43 AM PDT 8:57 PM PDT
Astronomical Twilight 4:06 AM PDT 9:34 PM PDT
Moon 2:15 PM PDT 1:59 AM PDT
Length of Visible Light 15h 04m
Length of Day
14h 07m
Waxing Gibbous, 66% of the Moon is Illuminated
May 19
Waxing Gibbous
May 24
Full
May 31
Last Quarter
Jun 8
New
Jun 16
First Quarter

Hourly Weather History & Observations

Time (PDT) Temp. Dew Point Humidity Pressure Visibility Wind Dir Wind Speed Gust Speed Precip Events Conditions
12:15 AM 53.6 °F 26.6 °F 35% 30.12 in 10.0 mi West 18.4 mph - N/A   Clear
12:35 AM 53.6 °F 26.6 °F 35% 30.12 in 10.0 mi West 16.1 mph - N/A   Clear
12:55 AM 53.6 °F 26.6 °F 35% 30.12 in 10.0 mi WNW 13.8 mph - N/A   Clear
1:15 AM 53.6 °F 26.6 °F 35% 30.12 in 10.0 mi West 12.7 mph - N/A   Clear
1:35 AM 53.6 °F 26.6 °F 35% 30.12 in 10.0 mi West 10.4 mph - N/A   Clear
1:55 AM 53.6 °F 26.6 °F 35% 30.11 in 10.0 mi WNW 11.5 mph - N/A   Clear
2:15 AM 53.6 °F 28.4 °F 38% 30.11 in 10.0 mi West 15.0 mph 19.6 mph N/A   Clear
2:35 AM 53.6 °F 30.2 °F 41% 30.10 in 10.0 mi West 16.1 mph - N/A   Clear
2:55 AM 53.6 °F 30.2 °F 41% 30.10 in 10.0 mi West 11.5 mph - N/A   Clear
3:15 AM 53.6 °F 32.0 °F 44% 30.10 in 10.0 mi WSW 12.7 mph - N/A   Clear
3:35 AM 51.8 °F 32.0 °F 47% 30.10 in 10.0 mi WSW 12.7 mph - N/A   Clear
3:55 AM 50.0 °F 32.0 °F 50% 30.11 in 10.0 mi West 11.5 mph - N/A   Clear
4:15 AM 48.2 °F 32.0 °F 54% 30.11 in 10.0 mi West 10.4 mph - N/A   Clear
4:35 AM 50.0 °F 32.0 °F 50% 30.11 in 10.0 mi West 13.8 mph - N/A   Clear
4:55 AM 50.0 °F 33.8 °F 54% 30.11 in 10.0 mi West 12.7 mph 19.6 mph N/A   Clear
5:15 AM 50.0 °F 32.0 °F 50% 30.11 in 10.0 mi West 12.7 mph - N/A   Clear
5:35 AM 50.0 °F 33.8 °F 54% 30.11 in 10.0 mi West 12.7 mph - N/A   Clear
5:55 AM 48.2 °F 35.6 °F 62% 30.12 in 10.0 mi West 13.8 mph - N/A   Clear
6:15 AM 50.0 °F 35.6 °F 58% 30.12 in 10.0 mi WNW 9.2 mph - N/A   Clear
6:35 AM 51.8 °F 37.4 °F 58% 30.13 in 10.0 mi WNW 11.5 mph - N/A   Clear
6:55 AM 53.6 °F 37.4 °F 54% 30.13 in 10.0 mi West 10.4 mph - N/A   Clear
7:15 AM 55.4 °F 37.4 °F 51% 30.13 in 10.0 mi West 13.8 mph - N/A   Clear
7:35 AM 57.2 °F 37.4 °F 48% 30.13 in 10.0 mi West 12.7 mph - N/A   Clear
7:55 AM 59.0 °F 37.4 °F 45% 30.13 in 10.0 mi WNW 15.0 mph - N/A   Clear
8:15 AM 59.0 °F 37.4 °F 45% 30.13 in 10.0 mi NW 12.7 mph 17.3 mph N/A   Clear
8:35 AM 59.0 °F 35.6 °F 42% 30.13 in 10.0 mi NW 12.7 mph 19.6 mph N/A   Clear
8:55 AM 60.8 °F 35.6 °F 39% 30.13 in 10.0 mi NW 17.3 mph 21.9 mph N/A   Clear
9:15 AM 62.6 °F 33.8 °F 34% 30.13 in 10.0 mi NW 15.0 mph 20.7 mph N/A   Clear
9:55 AM 64.4 °F 33.8 °F 32% 30.13 in 10.0 mi NW 19.6 mph - N/A   Clear
10:15 AM 62.6 °F 35.6 °F 37% 30.13 in 10.0 mi NW 19.6 mph - N/A   Clear
10:35 AM 62.6 °F 35.6 °F 37% 30.13 in 10.0 mi NW 18.4 mph - N/A   Clear
10:55 AM 64.4 °F 37.4 °F 37% 30.13 in 10.0 mi NW 16.1 mph - N/A   Clear
11:15 AM 64.4 °F 37.4 °F 37% 30.12 in 10.0 mi NW 18.4 mph - N/A   Clear
11:35 AM 66.2 °F 37.4 °F 35% 30.12 in 9.0 mi NW 15.0 mph 24.2 mph N/A   Clear
11:55 AM 66.2 °F 37.4 °F 35% 30.12 in 10.0 mi NW 19.6 mph - N/A   Clear
12:15 PM 66.2 °F 37.4 °F 35% 30.11 in 10.0 mi NW 16.1 mph 21.9 mph N/A   Clear
12:35 PM 66.2 °F 35.6 °F 32% 30.11 in 10.0 mi NW 17.3 mph 26.5 mph N/A   Clear
12:55 PM 68.0 °F 37.4 °F 33% 30.10 in 10.0 mi NW 18.4 mph 24.2 mph N/A   Clear
1:15 PM 68.0 °F 37.4 °F 33% 30.10 in 10.0 mi NW 17.3 mph 24.2 mph N/A   Clear
1:35 PM 68.0 °F 35.6 °F 30% 30.10 in 10.0 mi NW 17.3 mph 23.0 mph N/A   Clear
1:55 PM 68.0 °F 37.4 °F 33% 30.09 in 10.0 mi NNW 20.7 mph 25.3 mph N/A   Clear
2:15 PM 68.0 °F 37.4 °F 33% 30.09 in 9.0 mi NW 18.4 mph 24.2 mph N/A   Clear
2:35 PM 68.0 °F 37.4 °F 33% 30.09 in 10.0 mi NW 17.3 mph 24.2 mph N/A   Clear
2:55 PM 68.0 °F 37.4 °F 33% 30.08 in 10.0 mi NW 20.7 mph 26.5 mph N/A   Clear
3:15 PM 68.0 °F 37.4 °F 33% 30.09 in 10.0 mi NW 17.3 mph 26.5 mph N/A   Clear
3:35 PM 68.0 °F 35.6 °F 30% 30.08 in 10.0 mi WNW 19.6 mph 24.2 mph N/A   Clear
3:55 PM 68.0 °F 35.6 °F 30% 30.08 in 10.0 mi NW 15.0 mph 25.3 mph N/A   Clear
4:15 PM 68.0 °F 37.4 °F 33% 30.07 in 10.0 mi NW 18.4 mph 25.3 mph N/A   Clear
4:35 PM 68.0 °F 37.4 °F 33% 30.07 in 10.0 mi NW 16.1 mph 25.3 mph N/A   Clear
4:55 PM 68.0 °F 35.6 °F 30% 30.06 in 10.0 mi NW 18.4 mph 23.0 mph N/A   Clear
5:15 PM 68.0 °F 37.4 °F 33% 30.06 in 10.0 mi NW 20.7 mph 25.3 mph N/A   Clear
5:35 PM 68.0 °F 37.4 °F 33% 30.07 in 10.0 mi NNW 18.4 mph 25.3 mph N/A   Clear
5:55 PM 66.2 °F 35.6 °F 32% 30.06 in 10.0 mi NW 18.4 mph 24.2 mph N/A   Clear
6:15 PM 66.2 °F 35.6 °F 32% 30.06 in 10.0 mi NW 18.4 mph - N/A   Clear
6:55 PM 64.4 °F 35.6 °F 34% 30.06 in 10.0 mi NW 16.1 mph - N/A   Clear
7:15 PM 64.4 °F 35.6 °F 34% 30.06 in 10.0 mi WNW 13.8 mph - N/A   Clear
7:35 PM 62.6 °F 33.8 °F 34% 30.07 in 10.0 mi WNW 13.8 mph - N/A   Clear
7:55 PM 60.8 °F 33.8 °F 36% 30.07 in 10.0 mi WNW 11.5 mph - N/A   Clear
8:15 PM 59.0 °F 33.8 °F 39% 30.07 in 10.0 mi WNW 10.4 mph - N/A   Clear
8:35 PM 59.0 °F 35.6 °F 42% 30.08 in 10.0 mi WNW 9.2 mph - N/A   Clear
8:55 PM 57.2 °F 35.6 °F 44% 30.09 in 10.0 mi WNW 10.4 mph - N/A   Clear
9:15 PM 57.2 °F 33.8 °F 41% 30.09 in 10.0 mi WNW 9.2 mph - N/A   Clear
9:35 PM 55.4 °F 35.6 °F 47% 30.09 in 10.0 mi West 12.7 mph - N/A   Clear
9:55 PM 57.2 °F 35.6 °F 44% 30.09 in 10.0 mi WNW 9.2 mph - N/A   Clear
10:15 PM 55.4 °F 33.8 °F 44% 30.10 in 10.0 mi WNW 6.9 mph - N/A   Clear
10:35 PM 53.6 °F 32.0 °F 44% 30.10 in 10.0 mi NNW 8.1 mph - N/A   Clear
10:55 PM 55.4 °F 32.0 °F 41% 30.10 in 10.0 mi NW 10.4 mph - N/A   Clear
11:15 PM 53.6 °F 32.0 °F 44% 30.10 in 10.0 mi West 9.2 mph - N/A   Clear
11:35 PM 53.6 °F 33.8 °F 47% 30.11 in 10.0 mi West 4.6 mph - N/A   Clear
11:55 PM 51.8 °F 33.8 °F 50% 30.11 in 10.0 mi West 6.9 mph - N/A   Clear